Regional Weather Roundup
Issued by NWS

Home | Current Version | Previous Version | Graphics & Text | Print | Product List | Glossary On
Versions: 1 2 3 4 5 6 7 8 9 10 11 12 13 14 15 16 17 18 19 20 21 22 23 24 25 26 27 28 29 30 31 32 33 34 35 36 37 38 39 40 41 42 43 44 45 46 47 48 49 50
000
ASUS45 KPSR 210710
RWRAZ

ARIZONA HOURLY REGIONAL WEATHER ROUNDUP
NATIONAL WEATHER SERVICE PHOENIX AZ
1200 AM MST WED FEB 21 2018

NOTE: FAIR INDICATES FEW OR NO CLOUDS BELOW 12,000 FEET WITH NO
SIGNIFICANT WEATHER AND/OR OBSTRUCTIONS TO VISIBILITY.

AZZ001>003-036-210800-
NORTHWEST ARIZONA

CITY           SKY/WX    TMP DP  RH WIND       PRES   REMARKS
BULLHEAD CITY  CLEAR     45   0  15 NE9       30.14F
KINGMAN        CLEAR     23   3  42 SE5       30.11S WCI  17
$$

AZZ004>008-015-016-018-210800-
NORTH CENTRAL ARIZONA

CITY           SKY/WX    TMP DP  RH WIND       PRES   REMARKS
GRAND CANYON   CLEAR      4  -1  80 E5        30.06R WCI  -5
WILLIAMS       CLEAR     10   3  72 S10       30.02R WCI  -3
PRESCOTT       CLEAR     22   8  55 CALM      30.07R
FLAGSTAFF      CLEAR      9   1  70 CALM      30.04R
PAYSON         CLEAR     25  14  63 CALM      30.06S
PAGE           CLEAR     28   5  37 SW5       30.11R WCI  23
$$

AZZ009>014-017-210800-
NORTHEAST ARIZONA

CITY           SKY/WX    TMP DP  RH WIND       PRES   REMARKS
WINSLOW        CLEAR     13 -11  33 SW6       30.09S WCI   4
SAINT JOHNS    CLEAR     26  20  77 S7        30.06S WCI  18
WINDOW ROCK    CLOUDY    17  11  77 CALM      30.08S
SHOW LOW       PTCLDY    21  18  86 S5        30.07S WCI  15
$$

AZZ540-542>544-546-548-210800-
GREATER PHOENIX AREA

CITY           SKY/WX    TMP DP  RH WIND       PRES   REMARKS
PHOENIX        CLEAR     46  22  38 SW6       30.09S
BUCKEYE        CLEAR     39   7  26 N6        30.11S WCI  35
LUKE AFB       CLEAR     40  17  39 NW7       30.09R
DEER VALLEY    CLEAR     39  19  44 CALM      30.08F
SCOTTSDALE     CLEAR     45  20  36 CALM      30.10S
MESA-GATEWAY   CLEAR     39  30  70 CALM      30.11R
$$

AZZ539-553-210800-
SOUTHWEST MARICOPA COUNTY AND PINAL COUNTY

CITY           SKY/WX    TMP DP  RH WIND       PRES   REMARKS
CASA GRANDE      N/A     40  23  50 NE5       30.10S
GILA BEND      FAIR      39  17  40 S3        30.10S
$$

AZZ503-504-507>509-210800-
SOUTHEAST ARIZONA

CITY           SKY/WX    TMP DP  RH WIND       PRES   REMARKS
TUCSON         CLEAR     43  28  55 CALM      30.09S
DAVIS-MONTHAN  CLEAR     38  28  67 S6        30.07S WCI  34
NOGALES        CLEAR     34  30  85 E3        30.06S
SIERRA VISTA   CLEAR     35  27  74 S6        30.07F WCI  30
DOUGLAS        CLEAR     35  34  96 CALM      30.07S
SAFFORD        CLEAR     38  25  59 NW6       30.07S WCI  33
$$

AZZ532-210800-
SOUTHWEST ARIZONA

CITY           SKY/WX    TMP DP  RH WIND       PRES   REMARKS
YUMA           CLEAR     45  16  31 CALM      30.13S
$$

CAZ041-043-047-048-061-525>527-560>570-210800-
SOUTHERN CALIFORNIA

CITY           SKY/WX    TMP DP  RH WIND       PRES   REMARKS
DOWNTOWN L.A.  CLEAR     49  25  39 CALM      30.13F
L.A. AIRPORT   CLEAR     50  27  40 N3        30.14F
SAN DIEGO      CLEAR     51  31  46 E6        30.18S
BURBANK        CLEAR     46  20  35 NW5       30.11F
ONTARIO        CLEAR     44  21  40 E3        30.14S
RIVERSIDE      CLEAR     42  23  46 CALM      30.15S
PALM SPRINGS   CLEAR     48  17  29 NW3       30.16R
EL CENTRO NAS  PTCLDY    42   2  18 SE3       30.15S
IMPERIAL       CLEAR     42  16  34 CALM      30.13S
BLYTHE         CLEAR     39  -3  17 CALM      30.14R
NEEDLES        CLEAR     46  -5  11 NW7       30.14S
$$

NVZ020-UTZ003-210800-
SOUTHERN NEVADA-UTAH

CITY           SKY/WX    TMP DP  RH WIND       PRES   REMARKS
LAS VEGAS      MOCLDY    43   1  17 N6        30.13F
SALT LAKE CITY PTCLDY    18   6  59 S8        30.17S WCI   8
$$

NMZ009-TXZ055-210800-
NEW MEXICO-WEST TEXAS

CITY           SKY/WX    TMP DP  RH WIND       PRES   REMARKS
ALBUQUERQUE    PTCLDY    33  16  49 NE5       30.11S WCI  29
EL PASO        CLEAR     48  35  60 N5        30.05R
$$


........................KEY........................
SKY/WX - SKY CONDITION/WEATHER
TMP    - TEMPERATURE IN FAHRENHEIT
DP     - DEW POINT IN FAHRENHEIT
RH     - RELATIVE HUMIDITY IN PERCENT
WIND   - DIRECTION AND SPEED IN MILES PER HOUR (MPH)
VRB    - VARIABLE WIND DIRECTION
PRES   - MEAN SEA LEVEL PRESSURE IN INCHES OF MERCURY
         F - FALLING PRESSURE   R - RISING PRESSURE
         S - STEADY PRESSURE
VSB    - VISIBILITY IN MILES
HX     - HEAT INDEX IN FAHRENHEIT
WCI    - WIND CHILL INDEX IN FAHRENHEIT
TC     - TEMPERATURE IN CELSIUS WHICH IS ALSO KNOWN AS
         TEMPERATURE IN CENTIGRADE
AFB    - AIR FORCE BASE
         LUKE AFB IS LUKE AIR FORCE BASE
         DAVIS-MONTHAN IS DAVIS-MONTHAN AIR FORCE BASE
NAS    - NAVAL AIR STATION
         EL CENTRO NAS IS EL CENTRO NAVAL AIR STATION
N/A    - NOT AVAILABLE




USA.gov is the U.S. government's official web portal to all federal, state and local government web resources and services.